| time (UTC) | temp C | wind direction | speed KPH | gust KPH | rain 1hr cm | rain 24hr cm | rain mn cm | humidity % | barometer mb |
| 20260507233949 | 20 | 226 | 16.1 | 17.7 | 0.00 | 0.00 | 0.00 | 41 | 1010.1 |
| 20260507233444 | 20 | 216 | 9.7 | 14.5 | 0.00 | 0.00 | 0.00 | 42 | 1010.0 |
| 20260507232942 | 20 | 205 | 14.5 | 16.1 | 0.00 | 0.00 | 0.00 | 41 | 1010.2 |
| 20260507232438 | 20 | 275 | 11.3 | 16.1 | 0.00 | 0.00 | 0.00 | 42 | 1010.2 |
| 20260507231936 | 20 | 255 | 14.5 | 16.1 | 0.00 | 0.00 | 0.00 | 42 | 1010.4 |
| 20260507231432 | 20 | 222 | 11.3 | 12.9 | 0.00 | 0.00 | 0.00 | 41 | 1010.2 |
| 20260507230929 | 20 | 249 | 12.9 | 14.5 | 0.00 | 0.00 | 0.00 | 41 | 1010.3 |
| 20260507230426 | 20 | 235 | 14.5 | 16.1 | 0.00 | 0.00 | 0.00 | 41 | 1010.4 |
| 20260507225926 | 20 | 235 | 11.3 | 14.5 | 0.00 | 0.00 | 0.00 | 40 | 1010.5 |
| 20260507225423 | 20 | 204 | 9.7 | 11.3 | 0.00 | 0.00 | 0.00 | 41 | 1010.5 |
| 20260507224919 | 20 | 231 | 14.5 | 16.1 | 0.00 | 0.00 | 0.00 | 40 | 1010.8 |
| 20260507224415 | 20 | 258 | 9.7 | 14.5 | 0.00 | 0.00 | 0.00 | 40 | 1010.8 |
| 20260507223912 | 20 | 266 | 16.1 | 20.9 | 0.00 | 0.00 | 0.00 | 40 | 1010.7 |
| 20260507223408 | 20 | 231 | 12.9 | 14.5 | 0.00 | 0.00 | 0.00 | 42 | 1010.7 |
| 20260507222905 | 20 | 257 | 11.3 | 14.5 | 0.00 | 0.00 | 0.00 | 40 | 1011.0 |
| 20260507222401 | 20 | 247 | 17.7 | 20.9 | 0.00 | 0.00 | 0.00 | 40 | 1011.1 |
| 20260507221858 | 20 | 247 | 9.7 | 12.9 | 0.00 | 0.00 | 0.00 | 41 | 1011.0 |
| 20260507221355 | 19 | 270 | 12.9 | 20.9 | 0.00 | 0.00 | 0.00 | 43 | 1010.9 |
| 20260507220851 | 20 | 266 | 17.7 | 22.5 | 0.00 | 0.00 | 0.00 | 40 | 1010.7 |
| 20260507220349 | 20 | 289 | 16.1 | 17.7 | 0.00 | 0.00 | 0.00 | 40 | 1011.2 |
| 20260507215845 | 20 | 261 | 6.4 | 9.7 | 0.00 | 0.00 | 0.00 | 42 | 1010.9 |
| 20260507215342 | 19 | 248 | 11.3 | 14.5 | 0.00 | 0.00 | 0.00 | 43 | 1011.1 |
| 20260507214839 | 19 | 266 | 8.0 | 11.3 | 0.00 | 0.00 | 0.00 | 42 | 1011.1 |
| 20260507214338 | 20 | 253 | 14.5 | 16.1 | 0.00 | 0.00 | 0.00 | 40 | 1011.0 |
| 20260507213837 | 20 | 260 | 20.9 | 27.4 | 0.00 | 0.00 | 0.00 | 40 | 1011.1 |
| 20260507213335 | 20 | 254 | 14.5 | 16.1 | 0.00 | 0.00 | 0.00 | 40 | 1011.1 |
| 20260507212831 | 20 | 240 | 22.5 | 27.4 | 0.00 | 0.00 | 0.00 | 40 | 1010.9 |
| 20260507212327 | 20 | 234 | 14.5 | 17.7 | 0.00 | 0.00 | 0.00 | 41 | 1011.2 |
| 20260507211824 | 20 | 244 | 24.1 | 27.4 | 0.00 | 0.00 | 0.00 | 40 | 1011.1 |
| 20260507211321 | 20 | 253 | 14.5 | 20.9 | 0.00 | 0.00 | 0.00 | 43 | 1011.3 |
| 20260507210818 | 20 | 244 | 11.3 | 16.1 | 0.00 | 0.00 | 0.00 | 42 | 1011.3 |
| 20260507210315 | 20 | 277 | 12.9 | 17.7 | 0.00 | 0.00 | 0.00 | 42 | 1011.2 |
| 20260507205811 | 18 | 246 | 14.5 | 16.1 | 0.00 | 0.00 | 0.00 | 44 | 1011.2 |
| 20260507205308 | 20 | 257 | 17.7 | 17.7 | 0.00 | 0.00 | 0.00 | 41 | 1011.4 |
| 20260507204804 | 19 | 239 | 9.7 | 12.9 | 0.00 | 0.00 | 0.00 | 42 | 1011.3 |
| 20260507204302 | 19 | 219 | 16.1 | 17.7 | 0.00 | 0.00 | 0.00 | 42 | 1011.4 |
| 20260507203759 | 19 | 215 | 12.9 | 14.5 | 0.00 | 0.00 | 0.00 | 44 | 1011.5 |
| 20260507203257 | 18 | 179 | 11.3 | 14.5 | 0.00 | 0.00 | 0.00 | 47 | 1011.7 |
| 20260507202753 | 19 | 237 | 16.1 | 20.9 | 0.00 | 0.00 | 0.00 | 42 | 1011.8 |
| 20260507202249 | 19 | 245 | 12.9 | 20.9 | 0.00 | 0.00 | 0.00 | 42 | 1011.7 |
| 20260507201744 | 19 | 261 | 14.5 | 17.7 | 0.00 | 0.00 | 0.00 | 41 | 1011.7 |
| 20260507201241 | 18 | 226 | 16.1 | 17.7 | 0.00 | 0.00 | 0.00 | 44 | 1011.9 |
| 20260507200737 | 19 | 246 | 24.1 | 33.8 | 0.00 | 0.00 | 0.00 | 41 | 1011.9 |
| 20260507200233 | 19 | 190 | 9.7 | 16.1 | 0.00 | 0.00 | 0.00 | 44 | 1012.0 |
| 20260507195730 | 19 | 251 | 14.5 | 17.7 | 0.00 | 0.00 | 0.00 | 40 | 1011.9 |
| 20260507195227 | 18 | 234 | 14.5 | 17.7 | 0.00 | 0.00 | 0.00 | 41 | 1011.9 |
| 20260507194724 | 18 | 256 | 20.9 | 25.7 | 0.00 | 0.00 | 0.00 | 41 | 1012.3 |
| 20260507194220 | 18 | 203 | 22.5 | 27.4 | 0.00 | 0.00 | 0.00 | 43 | 1012.2 |
| 20260507193717 | 18 | 251 | 17.7 | 27.4 | 0.00 | 0.00 | 0.00 | 43 | 1012.3 |
| 20260507193214 | 18 | 233 | 4.8 | 4.8 | 0.00 | 0.00 | 0.00 | 44 | 1012.4 |
| 20260507192710 | 18 | 242 | 11.3 | 12.9 | 0.00 | 0.00 | 0.00 | 44 | 1012.5 |
| 20260507192207 | 18 | 246 | 11.3 | 14.5 | 0.00 | 0.00 | 0.00 | 41 | 1012.3 |
| 20260507191702 | 18 | 264 | 8.0 | 9.7 | 0.00 | 0.00 | 0.00 | 41 | 1012.6 |
| 20260507191200 | 18 | 246 | 14.5 | 14.5 | 0.00 | 0.00 | 0.00 | 44 | 1012.7 |
| 20260507190657 | 18 | 251 | 16.1 | 17.7 | 0.00 | 0.00 | 0.00 | 42 | 1012.7 |
| 20260507190155 | 18 | 248 | 14.5 | 17.7 | 0.00 | 0.00 | 0.00 | 42 | 1012.8 |
| 20260507185654 | 18 | 242 | 11.3 | 16.1 | 0.00 | 0.00 | 0.00 | 47 | 1012.7 |
| 20260507185150 | 18 | 240 | 22.5 | 25.7 | 0.00 | 0.00 | 0.00 | 42 | 1012.9 |
| 20260507184648 | 18 | 244 | 17.7 | 22.5 | 0.00 | 0.00 | 0.00 | 42 | 1012.9 |
| 20260507184146 | 18 | 245 | 17.7 | 22.5 | 0.00 | 0.00 | 0.00 | 42 | 1012.9 |
| 20260507183642 | 18 | 266 | 16.1 | 17.7 | 0.00 | 0.00 | 0.00 | 44 | 1012.9 |
| 20260507183139 | 18 | 259 | 9.7 | 12.9 | 0.00 | 0.00 | 0.00 | 44 | 1012.9 |
| 20260507182636 | 18 | 240 | 12.9 | 12.9 | 0.00 | 0.00 | 0.00 | 44 | 1013.0 |
| 20260507182131 | 18 | 247 | 20.9 | 24.1 | 0.00 | 0.00 | 0.00 | 40 | 1012.8 |
| 20260507181628 | 18 | 226 | 19.3 | 24.1 | 0.00 | 0.00 | 0.00 | 44 | 1013.0 |
| 20260507181124 | 17 | 236 | 12.9 | 16.1 | 0.00 | 0.00 | 0.00 | 44 | 1013.2 |
| 20260507180621 | 17 | 267 | 14.5 | 17.7 | 0.00 | 0.00 | 0.00 | 43 | 1013.3 |
| 20260507180118 | 17 | 238 | 12.9 | 14.5 | 0.00 | 0.00 | 0.00 | 43 | 1013.3 |
| 20260507175614 | 18 | 232 | 8.0 | 11.3 | 0.00 | 0.00 | 0.00 | 45 | 1013.3 |
| 20260507175111 | 18 | 248 | 19.3 | 25.7 | 0.00 | 0.00 | 0.00 | 42 | 1013.6 |
| 20260507174608 | 17 | 233 | 14.5 | 20.9 | 0.00 | 0.00 | 0.00 | 46 | 1013.6 |
| 20260507174106 | 17 | 262 | 14.5 | 24.1 | 0.00 | 0.00 | 0.00 | 44 | 1013.6 |
| 20260507173603 | 18 | 243 | 17.7 | 25.7 | 0.00 | 0.00 | 0.00 | 42 | 1013.8 |
| 20260507173100 | 18 | 269 | 12.9 | 16.1 | 0.00 | 0.00 | 0.00 | 45 | 1013.8 |
| 20260507172556 | 18 | 234 | 17.7 | 20.9 | 0.00 | 0.00 | 0.00 | 44 | 1013.9 |
| 20260507172053 | 17 | 231 | 14.5 | 16.1 | 0.00 | 0.00 | 0.00 | 45 | 1013.9 |
| 20260507171548 | 17 | 258 | 9.7 | 11.3 | 0.00 | 0.00 | 0.00 | 44 | 1014.0 |
| 20260507171046 | 17 | 232 | 14.5 | 17.7 | 0.00 | 0.00 | 0.00 | 47 | 1013.9 |
| 20260507170543 | 17 | 299 | 8.0 | 12.9 | 0.00 | 0.00 | 0.00 | 47 | 1014.1 |
| 20260507170040 | 17 | 274 | 11.3 | 14.5 | 0.00 | 0.00 | 0.00 | 43 | 1014.4 |
| 20260507165535 | 17 | 279 | 11.3 | 12.9 | 0.00 | 0.00 | 0.00 | 47 | 1014.2 |
| 20260507165032 | 17 | 233 | 22.5 | 27.4 | 0.00 | 0.00 | 0.00 | 43 | 1014.2 |
| 20260507164528 | 17 | 259 | 11.3 | 14.5 | 0.00 | 0.00 | 0.00 | 49 | 1014.3 |
| 20260507164025 | 17 | 285 | 20.9 | 24.1 | 0.00 | 0.00 | 0.00 | 44 | 1014.5 |
| 20260507163523 | 17 | 290 | 12.9 | 14.5 | 0.00 | 0.00 | 0.00 | 46 | 1014.5 |
| 20260507163021 | 16 | 236 | 17.7 | 22.5 | 0.00 | 0.00 | 0.00 | 47 | 1014.7 |
| 20260507162521 | 17 | 258 | 20.9 | 27.4 | 0.00 | 0.00 | 0.00 | 45 | 1014.7 |
| 20260507162018 | 17 | 247 | 27.4 | 33.8 | 0.00 | 0.00 | 0.00 | 45 | 1014.6 |
| 20260507161514 | 16 | 335 | 16.1 | 22.5 | 0.00 | 0.00 | 0.00 | 47 | 1014.7 |
| 20260507161011 | 16 | 304 | 14.5 | 16.1 | 0.00 | 0.00 | 0.00 | 47 | 1014.6 |
| 20260507160507 | 16 | 255 | 6.4 | 11.3 | 0.00 | 0.00 | 0.00 | 49 | 1015.0 |
| 20260507160003 | 16 | 262 | 14.5 | 16.1 | 0.00 | 0.00 | 0.00 | 48 | 1014.7 |
| 20260507155459 | 16 | 259 | 24.1 | 29.0 | 0.00 | 0.00 | 0.00 | 46 | 1014.9 |
| 20260507154956 | 16 | 221 | 17.7 | 22.5 | 0.00 | 0.00 | 0.00 | 46 | 1015.1 |
| 20260507154453 | 16 | 292 | 14.5 | 17.7 | 0.00 | 0.00 | 0.00 | 49 | 1015.0 |
| 20260507153950 | 16 | 307 | 12.9 | 16.1 | 0.00 | 0.00 | 0.00 | 50 | 1015.2 |
| 20260507153447 | 16 | 249 | 9.7 | 12.9 | 0.00 | 0.00 | 0.00 | 49 | 1015.1 |
| 20260507152943 | 15 | 243 | 9.7 | 14.5 | 0.00 | 0.00 | 0.00 | 51 | 1015.0 |
| 20260507152439 | 15 | 274 | 19.3 | 25.7 | 0.00 | 0.00 | 0.00 | 50 | 1015.1 |
| 20260507151935 | 15 | 241 | 19.3 | 22.5 | 0.00 | 0.00 | 0.00 | 50 | 1015.0 |
| 20260507151432 | 15 | 243 | 9.7 | 12.9 | 0.00 | 0.00 | 0.00 | 51 | 1015.0 |
| 20260507150929 | 15 | 238 | 9.7 | 12.9 | 0.00 | 0.00 | 0.00 | 53 | 1015.0 |
| 20260507150426 | 15 | 225 | 12.9 | 17.7 | 0.00 | 0.00 | 0.00 | 54 | 1015.0 |
| 20260507145922 | 15 | 229 | 9.7 | 14.5 | 0.00 | 0.00 | 0.00 | 52 | 1015.2 |
| 20260507145418 | 15 | 232 | 12.9 | 14.5 | 0.00 | 0.00 | 0.00 | 53 | 1015.2 |
| 20260507144915 | 15 | 264 | 12.9 | 16.1 | 0.00 | 0.00 | 0.00 | 52 | 1015.2 |
| 20260507144412 | 15 | 224 | 16.1 | 17.7 | 0.00 | 0.00 | 0.00 | 52 | 1015.1 |
| 20260507143909 | 15 | 251 | 19.3 | 24.1 | 0.00 | 0.00 | 0.00 | 53 | 1015.0 |
| 20260507143406 | 15 | 236 | 12.9 | 16.1 | 0.00 | 0.00 | 0.00 | 54 | 1015.3 |
| 20260507142903 | 14 | 261 | 9.7 | 12.9 | 0.00 | 0.00 | 0.00 | 56 | 1015.1 |
| 20260507142358 | 13 | 258 | 12.9 | 17.7 | 0.00 | 0.00 | 0.00 | 56 | 1015.2 |
| 20260507141856 | 13 | 247 | 12.9 | 17.7 | 0.00 | 0.00 | 0.00 | 56 | 1015.1 |
| 20260507141352 | 13 | 242 | 11.3 | 16.1 | 0.00 | 0.00 | 0.00 | 56 | 1015.2 |
| 20260507140849 | 13 | 237 | 8.0 | 11.3 | 0.00 | 0.00 | 0.00 | 58 | 1015.2 |
| 20260507140345 | 13 | 209 | 9.7 | 16.1 | 0.00 | 0.00 | 0.00 | 57 | 1015.4 |
| 20260507135843 | 13 | 259 | 14.5 | 16.1 | 0.00 | 0.00 | 0.00 | 58 | 1015.5 |
| 20260507135340 | 13 | 263 | 14.5 | 20.9 | 0.00 | 0.00 | 0.00 | 57 | 1015.1 |
| 20260507134837 | 12 | 261 | 9.7 | 11.3 | 0.00 | 0.00 | 0.00 | 59 | 1015.3 |
| 20260507134333 | 12 | 202 | 12.9 | 17.7 | 0.00 | 0.00 | 0.00 | 59 | 1015.4 |
| 20260507133829 | 12 | 248 | 6.4 | 6.4 | 0.00 | 0.00 | 0.00 | 60 | 1015.5 |
| 20260507133325 | 12 | 264 | 12.9 | 14.5 | 0.00 | 0.00 | 0.00 | 61 | 1015.2 |
| 20260507132824 | 11 | 241 | 8.0 | 11.3 | 0.00 | 0.00 | 0.00 | 62 | 1015.6 |
| 20260507132320 | 11 | 249 | 14.5 | 14.5 | 0.00 | 0.00 | 0.00 | 62 | 1015.7 |
| 20260507131817 | 11 | 224 | 6.4 | 6.4 | 0.00 | 0.00 | 0.00 | 63 | 1015.6 |
| 20260507131314 | 10 | 231 | 8.0 | 11.3 | 0.00 | 0.00 | 0.00 | 64 | 1015.9 |
| 20260507130810 | 10 | 257 | 4.8 | 9.7 | 0.00 | 0.00 | 0.00 | 65 | 1015.7 |
| 20260507130308 | 10 | 202 | 3.2 | 4.8 | 0.00 | 0.00 | 0.00 | 65 | 1015.9 |
| 20260507125807 | 10 | 236 | 9.7 | 11.3 | 0.00 | 0.00 | 0.00 | 65 | 1016.0 |
| 20260507125306 | 9 | 214 | 9.7 | 14.5 | 0.00 | 0.00 | 0.00 | 65 | 1015.9 |
| 20260507124801 | 9 | 247 | 9.7 | 11.3 | 0.00 | 0.00 | 0.00 | 66 | 1016.0 |
| 20260507124257 | 8 | 267 | 11.3 | 12.9 | 0.00 | 0.00 | 0.00 | 65 | 1015.9 |
| 20260507123756 | 8 | 230 | 9.7 | 14.5 | 0.00 | 0.00 | 0.00 | 66 | 1015.9 |
| 20260507123253 | 8 | 224 | 3.2 | 4.8 | 0.00 | 0.00 | 0.00 | 67 | 1016.0 |
| 20260507122748 | 8 | 228 | 4.8 | 4.8 | 0.00 | 0.00 | 0.00 | 67 | 1015.8 |
| 20260507122244 | 7 | 260 | 6.4 | 6.4 | 0.00 | 0.00 | 0.00 | 68 | 1015.7 |
| 20260507121740 | 7 | 230 | 8.0 | 11.3 | 0.00 | 0.00 | 0.00 | 68 | 1015.7 |
| 20260507121236 | 7 | 231 | 4.8 | 4.8 | 0.00 | 0.00 | 0.00 | 69 | 1015.8 |
| 20260507120732 | 7 | 237 | 6.4 | 9.7 | 0.00 | 0.00 | 0.00 | 69 | 1015.7 |
| 20260507120230 | 7 | 237 | 4.8 | 4.8 | 0.00 | 0.00 | 0.00 | 70 | 1015.5 |
| 20260507115726 | 6 | 235 | 6.4 | 9.7 | 0.00 | 0.00 | 0.00 | 71 | 1015.5 |
| 20260507115221 | 6 | 222 | 3.2 | 4.8 | 0.00 | 0.00 | 0.00 | 72 | 1015.6 |
| 20260507114717 | 6 | 205 | 3.2 | 4.8 | 0.00 | 0.00 | 0.00 | 72 | 1015.4 |
| 20260507114215 | 6 | 234 | 6.4 | 6.4 | 0.00 | 0.00 | 0.00 | 72 | 1015.5 |
| 20260507113712 | 6 | 225 | 8.0 | 9.7 | 0.00 | 0.00 | 0.00 | 72 | 1015.5 |
| 20260507113209 | 6 | 212 | 4.8 | 6.4 | 0.00 | 0.00 | 0.00 | 72 | 1015.4 |
| 20260507112706 | 6 | 216 | 6.4 | 9.7 | 0.00 | 0.00 | 0.00 | 72 | 1015.4 |
| 20260507112203 | 6 | 205 | 6.4 | 6.4 | 0.00 | 0.00 | 0.00 | 73 | 1015.4 |
| 20260507111701 | 6 | 201 | 4.8 | 6.4 | 0.00 | 0.00 | 0.00 | 72 | 1015.4 |
| 20260507111157 | 6 | 226 | 3.2 | 4.8 | 0.00 | 0.00 | 0.00 | 72 | 1015.4 |
| 20260507110653 | 6 | 215 | 3.2 | 4.8 | 0.00 | 0.00 | 0.00 | 72 | 1015.6 |
| 20260507110150 | 6 | 226 | 3.2 | 4.8 | 0.00 | 0.00 | 0.00 | 72 | 1015.5 |
| 20260507105647 | 6 | 209 | 6.4 | 6.4 | 0.00 | 0.00 | 0.00 | 72 | 1015.5 |
| 20260507105143 | 6 | 209 | 6.4 | 6.4 | 0.00 | 0.00 | 0.00 | 72 | 1015.6 |
| 20260507104640 | 6 | 221 | 4.8 | 4.8 | 0.00 | 0.00 | 0.00 | 71 | 1015.6 |
| 20260507104137 | 6 | 228 | 4.8 | 6.4 | 0.00 | 0.00 | 0.00 | 71 | 1015.6 |
| 20260507103633 | 6 | 178 | 4.8 | 4.8 | 0.00 | 0.00 | 0.00 | 71 | 1015.7 |
| 20260507103130 | 6 | 221 | 6.4 | 6.4 | 0.00 | 0.00 | 0.00 | 71 | 1015.6 |
| 20260507102626 | 6 | 209 | 9.7 | 12.9 | 0.00 | 0.00 | 0.00 | 70 | 1015.7 |
| 20260507102122 | 6 | 237 | 4.8 | 6.4 | 0.00 | 0.00 | 0.00 | 70 | 1015.7 |
| 20260507101618 | 6 | 241 | 4.8 | 6.4 | 0.00 | 0.00 | 0.00 | 70 | 1015.8 |
| 20260507101114 | 6 | 221 | 6.4 | 9.7 | 0.00 | 0.00 | 0.00 | 69 | 1015.7 |
| 20260507100612 | 7 | 239 | 6.4 | 6.4 | 0.00 | 0.00 | 0.00 | 68 | 1015.7 |
| 20260507100110 | 7 | 226 | 4.8 | 4.8 | 0.00 | 0.00 | 0.00 | 68 | 1015.7 |
| 20260507095608 | 7 | 232 | 4.8 | 4.8 | 0.00 | 0.00 | 0.00 | 68 | 1015.7 |
| 20260507095104 | 7 | 231 | 8.0 | 11.3 | 0.00 | 0.00 | 0.00 | 67 | 1015.6 |
| 20260507094600 | 6 | 201 | 6.4 | 6.4 | 0.00 | 0.00 | 0.00 | 67 | 1015.7 |
| 20260507094057 | 6 | 201 | 6.4 | 6.4 | 0.00 | 0.00 | 0.00 | 67 | 1015.6 |
| 20260507093555 | 6 | 209 | 3.2 | 6.4 | 0.00 | 0.00 | 0.00 | 67 | 1015.7 |
| 20260507093053 | 6 | 206 | 3.2 | 3.2 | 0.00 | 0.00 | 0.00 | 68 | 1015.9 |
| 20260507092549 | 6 | 221 | 6.4 | 6.4 | 0.00 | 0.00 | 0.00 | 68 | 1015.7 |
| 20260507092046 | 6 | 212 | 4.8 | 4.8 | 0.00 | 0.00 | 0.00 | 67 | 1016.0 |
| 20260507091543 | 6 | 240 | 6.4 | 6.4 | 0.00 | 0.00 | 0.00 | 68 | 1015.9 |
| 20260507091039 | 6 | 213 | 4.8 | 4.8 | 0.00 | 0.00 | 0.00 | 67 | 1016.1 |
| 20260507090535 | 7 | 215 | 3.2 | 3.2 | 0.00 | 0.00 | 0.00 | 67 | 1016.1 |
| 20260507090032 | 7 | 210 | 4.8 | 4.8 | 0.00 | 0.00 | 0.00 | 67 | 1016.1 |
| 20260507085529 | 6 | 257 | 4.8 | 4.8 | 0.00 | 0.00 | 0.00 | 68 | 1016.1 |
| 20260507085026 | 6 | 225 | 3.2 | 3.2 | 0.00 | 0.00 | 0.00 | 68 | 1016.2 |
| 20260507084522 | 7 | 238 | 4.8 | 4.8 | 0.00 | 0.00 | 0.00 | 67 | 1016.2 |
| 20260507084020 | 7 | 213 | 3.2 | 3.2 | 0.00 | 0.00 | 0.00 | 66 | 1016.1 |
| 20260507083515 | 7 | 214 | 3.2 | 4.8 | 0.00 | 0.00 | 0.00 | 66 | 1016.4 |
| 20260507083013 | 7 | 238 | 4.8 | 6.4 | 0.00 | 0.00 | 0.00 | 66 | 1016.2 |
| 20260507082509 | 7 | 231 | 4.8 | 4.8 | 0.00 | 0.00 | 0.00 | 66 | 1016.1 |
| 20260507082005 | 7 | 216 | 1.6 | 1.6 | 0.00 | 0.00 | 0.00 | 65 | 1016.2 |
| 20260507081501 | 7 | 229 | 3.2 | 3.2 | 0.00 | 0.00 | 0.00 | 65 | 1016.3 |
| 20260507080958 | 7 | 215 | 4.8 | 4.8 | 0.00 | 0.00 | 0.00 | 65 | 1016.1 |
| 20260507080454 | 7 | 226 | 3.2 | 4.8 | 0.00 | 0.00 | 0.00 | 63 | 1016.2 |
| 20260507075949 | 7 | 230 | 1.6 | 3.2 | 0.00 | 0.00 | 0.00 | 63 | 1016.1 |
| 20260507075446 | 7 | 232 | 1.6 | 1.6 | 0.00 | 0.00 | 0.00 | 61 | 1016.1 |
| 20260507074943 | 8 | 208 | 4.8 | 6.4 | 0.00 | 0.00 | 0.00 | 61 | 1016.3 |
| 20260507074440 | 8 | 232 | 3.2 | 3.2 | 0.00 | 0.00 | 0.00 | 60 | 1016.3 |
| 20260507073938 | 8 | 215 | 3.2 | 3.2 | 0.00 | 0.00 | 0.00 | 59 | 1016.3 |
| 20260507073434 | 8 | 226 | 3.2 | 3.2 | 0.00 | 0.00 | 0.00 | 59 | 1016.5 |
| 20260507072931 | 8 | 209 | 3.2 | 3.2 | 0.00 | 0.00 | 0.00 | 58 | 1016.2 |
| 20260507072428 | 8 | 219 | 3.2 | 4.8 | 0.00 | 0.00 | 0.00 | 57 | 1016.5 |
| 20260507071926 | 8 | 218 | 3.2 | 3.2 | 0.00 | 0.00 | 0.00 | 58 | 1016.3 |
| 20260507071422 | 8 | 231 | 3.2 | 4.8 | 0.00 | 0.00 | 0.00 | 58 | 1016.4 |
| 20260507070919 | 8 | 207 | 1.6 | 1.6 | 0.00 | 0.00 | 0.00 | 59 | 1016.7 |
| 20260507070417 | 8 | 234 | 3.2 | 3.2 | 0.00 | 0.00 | 0.00 | 58 | 1016.5 |
| 20260507065913 | 8 | 211 | 3.2 | 3.2 | 0.00 | 0.00 | 0.00 | 57 | 1016.6 |
| 20260507065410 | 8 | 214 | 3.2 | 4.8 | 0.00 | 0.00 | 0.00 | 56 | 1016.8 |
| 20260507064907 | 8 | 227 | 1.6 | 3.2 | 0.00 | 0.00 | 0.00 | 56 | 1016.8 |
| 20260507064405 | 8 | 240 | 3.2 | 4.8 | 0.00 | 0.00 | 0.00 | 56 | 1016.4 |
| 20260507063903 | 8 | 195 | 1.6 | 3.2 | 0.00 | 0.00 | 0.00 | 55 | 1016.7 |
| 20260507063400 | 9 | 226 | 3.2 | 4.8 | 0.00 | 0.00 | 0.00 | 54 | 1016.7 |
| 20260507062856 | 9 | 233 | 3.2 | 4.8 | 0.00 | 0.00 | 0.00 | 53 | 1016.6 |
| 20260507062353 | 9 | 223 | 1.6 | 1.6 | 0.00 | 0.00 | 0.00 | 54 | 1016.9 |
| 20260507061851 | 9 | 248 | 3.2 | 4.8 | 0.00 | 0.00 | 0.00 | 54 | 1016.7 |
| 20260507061349 | 9 | 228 | 1.6 | 1.6 | 0.00 | 0.00 | 0.00 | 53 | 1016.9 |
| 20260507060847 | 9 | 233 | 1.6 | 1.6 | 0.00 | 0.00 | 0.00 | 54 | 1016.8 |
| 20260507060343 | 8 | 225 | 0.0 | 1.6 | 0.00 | 0.00 | 0.00 | 54 | 1016.8 |
| 20260507055841 | 8 | 226 | 0.0 | 0.0 | 0.00 | 0.00 | 0.00 | 58 | 1017.0 |
| 20260507055341 | 8 | 229 | 0.0 | 0.0 | 0.00 | 0.00 | 0.00 | 55 | 1017.0 |
| 20260507054838 | 8 | 223 | 0.0 | 1.6 | 0.00 | 0.00 | 0.00 | 58 | 1017.0 |
| 20260507054334 | 8 | 210 | 0.0 | 0.0 | 0.00 | 0.00 | 0.00 | 56 | 1017.0 |
| 20260507053831 | 8 | 213 | 0.0 | 0.0 | 0.00 | 0.00 | 0.00 | 57 | 1017.0 |
| 20260507053329 | 8 | 212 | 0.0 | 0.0 | 0.00 | 0.00 | 0.00 | 59 | 1016.9 |
| 20260507052828 | 8 | 209 | 0.0 | 0.0 | 0.00 | 0.00 | 0.00 | 57 | 1016.8 |
| 20260507052324 | 8 | 201 | 0.0 | 0.0 | 0.00 | 0.00 | 0.00 | 55 | 1017.0 |
| 20260507051822 | 8 | 208 | 0.0 | 0.0 | 0.00 | 0.00 | 0.00 | 57 | 1016.9 |
| 20260507051320 | 8 | 209 | 0.0 | 0.0 | 0.00 | 0.00 | 0.00 | 53 | 1017.0 |
| 20260507050816 | 8 | 210 | 0.0 | 0.0 | 0.00 | 0.00 | 0.00 | 53 | 1016.9 |
| 20260507050312 | 8 | 211 | 0.0 | 0.0 | 0.00 | 0.00 | 0.00 | 53 | 1017.2 |
| 20260507045809 | 8 | 224 | 0.0 | 0.0 | 0.00 | 0.00 | 0.00 | 56 | 1017.1 |
| 20260507045306 | 8 | 224 | 0.0 | 0.0 | 0.00 | 0.00 | 0.00 | 55 | 1016.9 |
| 20260507044803 | 8 | 199 | 0.0 | 0.0 | 0.00 | 0.00 | 0.00 | 54 | 1017.1 |
| 20260507044259 | 8 | 199 | 0.0 | 0.0 | 0.00 | 0.00 | 0.00 | 54 | 1017.1 |
| 20260507043755 | 8 | 199 | 0.0 | 0.0 | 0.00 | 0.00 | 0.00 | 59 | 1017.3 |
| 20260507043252 | 8 | 199 | 0.0 | 0.0 | 0.00 | 0.00 | 0.00 | 58 | 1017.3 |
| 20260507042748 | 8 | 199 | 0.0 | 0.0 | 0.00 | 0.00 | 0.00 | 52 | 1017.2 |
| 20260507042244 | 8 | 199 | 0.0 | 0.0 | 0.00 | 0.00 | 0.00 | 53 | 1017.2 |
| 20260507041742 | 8 | 199 | 0.0 | 0.0 | 0.00 | 0.00 | 0.00 | 54 | 1017.0 |
| 20260507041238 | 8 | 200 | 1.6 | 1.6 | 0.00 | 0.00 | 0.00 | 53 | 1017.2 |
| 20260507040735 | 7 | 197 | 3.2 | 3.2 | 0.00 | 0.00 | 0.00 | 57 | 1017.3 |
| 20260507040231 | 6 | 309 | 0.0 | 0.0 | 0.00 | 0.00 | 0.00 | 68 | 1017.4 |
| 20260507035727 | 6 | 309 | 0.0 | 0.0 | 0.00 | 0.00 | 0.00 | 69 | 1017.3 |
| 20260507035223 | 6 | 309 | 0.0 | 0.0 | 0.00 | 0.00 | 0.00 | 70 | 1017.3 |
| 20260507034720 | 6 | 309 | 0.0 | 0.0 | 0.00 | 0.00 | 0.00 | 72 | 1017.1 |
| 20260507034217 | 6 | 309 | 0.0 | 0.0 | 0.00 | 0.00 | 0.00 | 72 | 1017.1 |
| 20260507033716 | 6 | 309 | 0.0 | 0.0 | 0.00 | 0.00 | 0.00 | 71 | 1017.2 |
| 20260507033213 | 6 | 309 | 0.0 | 0.0 | 0.00 | 0.00 | 0.00 | 70 | 1017.2 |
| 20260507032710 | 6 | 309 | 0.0 | 0.0 | 0.00 | 0.00 | 0.00 | 69 | 1017.3 |
| 20260507032206 | 6 | 309 | 0.0 | 0.0 | 0.00 | 0.00 | 0.00 | 70 | 1017.1 |
| 20260507031703 | 6 | 309 | 0.0 | 0.0 | 0.00 | 0.00 | 0.00 | 69 | 1017.2 |
| 20260507031159 | 6 | 309 | 0.0 | 0.0 | 0.00 | 0.00 | 0.00 | 68 | 1017.1 |
| 20260507030656 | 6 | 309 | 0.0 | 0.0 | 0.00 | 0.00 | 0.00 | 70 | 1017.2 |
| 20260507030154 | 6 | 309 | 0.0 | 0.0 | 0.00 | 0.00 | 0.00 | 66 | 1017.2 |
| 20260507025651 | 7 | 309 | 0.0 | 0.0 | 0.00 | 0.00 | 0.00 | 65 | 1017.4 |
| 20260507025148 | 7 | 309 | 0.0 | 0.0 | 0.00 | 0.00 | 0.00 | 68 | 1017.1 |
| 20260507024646 | 7 | 309 | 0.0 | 0.0 | 0.00 | 0.00 | 0.00 | 66 | 1017.1 |
| 20260507024143 | 7 | 309 | 0.0 | 0.0 | 0.00 | 0.00 | 0.00 | 65 | 1017.3 |
| 20260507023638 | 7 | 309 | 0.0 | 0.0 | 0.00 | 0.00 | 0.00 | 64 | 1017.1 |
| 20260507023136 | 7 | 309 | 0.0 | 0.0 | 0.00 | 0.00 | 0.00 | 60 | 1016.8 |
| 20260507022633 | 8 | 310 | 0.0 | 0.0 | 0.00 | 0.00 | 0.00 | 59 | 1016.9 |
| 20260507022128 | 8 | 310 | 0.0 | 0.0 | 0.00 | 0.00 | 0.00 | 60 | 1016.9 |
| 20260507021625 | 8 | 310 | 0.0 | 0.0 | 0.00 | 0.00 | 0.00 | 60 | 1016.9 |
| 20260507021120 | 8 | 310 | 0.0 | 0.0 | 0.00 | 0.00 | 0.00 | 57 | 1016.8 |
| 20260507020619 | 8 | 310 | 0.0 | 0.0 | 0.00 | 0.00 | 0.00 | 57 | 1017.0 |
| 20260507020115 | 8 | 310 | 0.0 | 0.0 | 0.00 | 0.00 | 0.00 | 56 | 1016.7 |
| 20260507015613 | 8 | 310 | 0.0 | 0.0 | 0.00 | 0.00 | 0.00 | 54 | 1016.9 |
| 20260507015110 | 8 | 310 | 0.0 | 0.0 | 0.00 | 0.00 | 0.00 | 55 | 1016.7 |
| 20260507014607 | 8 | 310 | 0.0 | 0.0 | 0.00 | 0.00 | 0.00 | 54 | 1016.5 |
| 20260507014103 | 9 | 310 | 0.0 | 0.0 | 0.00 | 0.00 | 0.00 | 55 | 1016.6 |
| 20260507013559 | 9 | 310 | 0.0 | 0.0 | 0.00 | 0.00 | 0.00 | 50 | 1016.5 |
| 20260507013057 | 10 | 310 | 0.0 | 0.0 | 0.00 | 0.00 | 0.00 | 47 | 1016.5 |
| 20260507012554 | 10 | 310 | 0.0 | 0.0 | 0.00 | 0.00 | 0.00 | 44 | 1016.4 |
| 20260507012049 | 10 | 310 | 0.0 | 0.0 | 0.00 | 0.00 | 0.00 | 41 | 1016.2 |
| 20260507011548 | 11 | 310 | 0.0 | 0.0 | 0.00 | 0.00 | 0.00 | 40 | 1016.4 |
| 20260507011044 | 11 | 310 | 0.0 | 0.0 | 0.00 | 0.00 | 0.00 | 38 | 1016.5 |
| 20260507010538 | 12 | 311 | 0.0 | 0.0 | 0.00 | 0.00 | 0.00 | 38 | 1016.3 |
| 20260507010035 | 12 | 316 | 1.6 | 1.6 | 0.00 | 0.00 | 0.00 | 37 | 1016.3 |
| 20260507005533 | 13 | 287 | 0.0 | 0.0 | 0.00 | 0.00 | 0.00 | 36 | 1016.6 |
| 20260507005028 | 13 | 288 | 0.0 | 1.6 | 0.00 | 0.00 | 0.00 | 35 | 1016.4 |
| 20260507004526 | 14 | 274 | 1.6 | 1.6 | 0.00 | 0.00 | 0.00 | 33 | 1016.5 |
| 20260507004023 | 14 | 244 | 0.0 | 0.0 | 0.00 | 0.00 | 0.00 | 33 | 1016.5 |
| 20260507003518 | 14 | 268 | 0.0 | 1.6 | 0.00 | 0.00 | 0.00 | 33 | 1016.5 |
| 20260507003014 | 15 | 253 | 1.6 | 1.6 | 0.00 | 0.00 | 0.00 | 33 | 1016.4 |
| 20260507002510 | 15 | 269 | 0.0 | 0.0 | 0.00 | 0.00 | 0.00 | 32 | 1016.4 |
| 20260507002007 | 15 | 276 | 1.6 | 3.2 | 0.00 | 0.00 | 0.00 | 31 | 1016.3 |
| 20260507001503 | 15 | 244 | 0.0 | 1.6 | 0.00 | 0.00 | 0.00 | 31 | 1016.4 |
| 20260507001001 | 15 | 343 | 3.2 | 4.8 | 0.00 | 0.00 | 0.00 | 30 | 1016.2 |
| 20260507000456 | 15 | 318 | 6.4 | 11.3 | 0.00 | 0.00 | 0.00 | 30 | 1016.3 |
| 20260506235952 | 15 | 348 | 6.4 | 9.7 | 0.00 | 0.00 | 0.00 | 30 | 1016.5 |
| 20260506235450 | 15 | 256 | 0.0 | 1.6 | 0.00 | 0.00 | 0.00 | 32 | 1016.2 |
| 20260506234945 | 15 | 317 | 4.8 | 6.4 | 0.00 | 0.00 | 0.00 | 30 | 1016.2 |
| 20260506234443 | 15 | 282 | 3.2 | 3.2 | 0.00 | 0.00 | 0.00 | 31 | 1016.3 |